Tracking 18823 objects as of 24-October-2017
HD Live streaming from Space Station
objects crossing your sky now

AAU CUBESAT

Track AAU CUBESAT now!
10-day predictions
AAU CUBESAT is classified as:


NORAD ID: 27846
Int'l Code: 2003-031G
Perigee: 819.2 km
Apogee: 831.3 km
Inclination: 98.7 °
Period: 101.3 minutes
Semi major axis: 7196 km
RCS: 0.009 m2 (small)
Launch date: June 30, 2003
Source: Denmark (DEN)
Launch site: PLESETSK MISSILE AND SPACE COMPLEX (PKMTR)
Uplink (MHz):
Downlink (MHz): 437.450
Beacon (MHz): 437.450
Mode: 9600bps GMSK
Call sign:
Status: Inactive

aabbcc
Your satellite tracking list
Your tracking list is empty





NASA's NSSDC Master Catalog

Two Line Element Set (TLE):
1 27846U 03031G   17296.93057203  .00000049  00000-0  41862-4 0  9996
2 27846  98.6840 302.7844 0008414 313.9107  46.1375 14.22131748742768
Source of the keplerian elements: AFSPC